TimeEST,TemperatureF,Dew PointF,Humidity,Sea Level PressureIn,VisibilityMPH,Wind Direction,Wind SpeedMPH,Gust SpeedMPH,PrecipitationIn,Events,Conditions,WindDirDegrees,DateUTC
12:15 AM,26.6,26.6,100,30.17,9.0,Calm,Calm,-,N/A,,Clear,0,2013-01-20 05:15:00
12:35 AM,26.6,26.6,100,30.17,10.0,Calm,Calm,-,N/A,,Clear,0,2013-01-20 05:35:00
12:55 AM,26.6,26.6,100,30.17,10.0,Calm,Calm,-,N/A,,Clear,0,2013-01-20 05:55:00
1:15 AM,26.6,26.6,100,30.17,10.0,Calm,Calm,-,N/A,,Clear,0,2013-01-20 06:15:00
1:35 AM,24.8,24.8,100,30.17,10.0,Calm,Calm,-,N/A,,Clear,0,2013-01-20 06:35:00
1:55 AM,26.6,24.8,93,30.17,10.0,Calm,Calm,-,N/A,,Clear,0,2013-01-20 06:55:00
2:15 AM,26.6,26.6,100,30.17,10.0,Calm,Calm,-,N/A,,Clear,0,2013-01-20 07:15:00
2:35 AM,26.6,24.8,93,30.17,10.0,Calm,Calm,-,N/A,,Clear,0,2013-01-20 07:35:00
2:55 AM,24.8,24.8,100,30.17,10.0,Calm,Calm,-,N/A,,Clear,0,2013-01-20 07:55:00
3:15 AM,26.6,24.8,93,30.16,10.0,Calm,Calm,-,N/A,,Clear,0,2013-01-20 08:15:00
3:35 AM,24.8,24.8,100,30.17,10.0,Calm,Calm,-,N/A,,Clear,0,2013-01-20 08:35:00
3:55 AM,24.8,24.8,100,30.16,10.0,Calm,Calm,-,N/A,,Clear,0,2013-01-20 08:55:00
4:15 AM,24.8,23.0,93,30.16,10.0,Calm,Calm,-,N/A,,Clear,0,2013-01-20 09:15:00
4:35 AM,24.8,24.8,100,30.16,10.0,Calm,Calm,-,N/A,,Clear,0,2013-01-20 09:35:00
4:55 AM,24.8,24.8,100,30.16,9.0,Calm,Calm,-,N/A,,Clear,0,2013-01-20 09:55:00
5:15 AM,24.8,23.0,93,30.16,10.0,Calm,Calm,-,N/A,,Clear,0,2013-01-20 10:15:00
5:35 AM,24.8,23.0,93,30.16,10.0,Calm,Calm,-,N/A,,Clear,0,2013-01-20 10:35:00
5:55 AM,24.8,23.0,93,30.16,10.0,Calm,Calm,-,N/A,,Clear,0,2013-01-20 10:55:00
6:15 AM,23.0,23.0,100,30.17,10.0,Calm,Calm,-,N/A,,Clear,0,2013-01-20 11:15:00
6:35 AM,24.8,23.0,93,30.17,10.0,Calm,Calm,-,N/A,,Partly Cloudy,0,2013-01-20 11:35:00
7:15 AM,24.8,23.0,93,30.17,10.0,Calm,Calm,-,N/A,,Partly Cloudy,0,2013-01-20 12:15:00
7:35 AM,24.8,23.0,93,30.17,10.0,Calm,Calm,-,N/A,,Clear,0,2013-01-20 12:35:00
7:55 AM,23.0,23.0,100,30.17,10.0,Calm,Calm,-,N/A,,Clear,0,2013-01-20 12:55:00
8:15 AM,23.0,23.0,100,30.18,10.0,Calm,Calm,-,N/A,,Clear,0,2013-01-20 13:15:00
8:35 AM,26.6,24.8,93,30.18,10.0,Calm,Calm,-,N/A,,Clear,0,2013-01-20 13:35:00
8:55 AM,26.6,26.6,100,30.19,10.0,Calm,Calm,-,N/A,,Clear,0,2013-01-20 13:55:00
9:15 AM,28.4,28.4,100,30.19,10.0,Calm,Calm,-,N/A,,Clear,0,2013-01-20 14:15:00
9:35 AM,32.0,28.4,87,30.19,10.0,Calm,Calm,-,N/A,,Clear,0,2013-01-20 14:35:00
9:55 AM,32.0,32.0,100,30.19,10.0,Calm,Calm,-,N/A,,Clear,0,2013-01-20 14:55:00
10:15 AM,35.6,32.0,87,30.20,10.0,Calm,Calm,-,N/A,,Clear,0,2013-01-20 15:15:00
10:35 AM,37.4,32.0,81,30.20,10.0,SW,6.9,-,N/A,,Clear,220,2013-01-20 15:35:00
10:55 AM,41.0,33.8,76,30.19,10.0,SW,6.9,-,N/A,,Clear,220,2013-01-20 15:55:00
11:15 AM,44.6,33.8,66,30.19,10.0,SW,8.1,-,N/A,,Clear,220,2013-01-20 16:15:00
11:35 AM,44.6,32.0,61,30.18,10.0,SW,10.4,-,N/A,,Clear,220,2013-01-20 16:35:00
11:55 AM,46.4,32.0,57,30.18,10.0,SW,10.4,-,N/A,,Clear,230,2013-01-20 16:55:00
12:15 PM,46.4,32.0,57,30.17,10.0,SSW,9.2,-,N/A,,Clear,210,2013-01-20 17:15:00
12:35 PM,48.2,32.0,54,30.15,10.0,SW,8.1,-,N/A,,Clear,220,2013-01-20 17:35:00
12:55 PM,48.2,32.0,54,30.14,10.0,SSW,8.1,-,N/A,,Clear,210,2013-01-20 17:55:00
1:15 PM,50.0,28.4,43,30.13,10.0,WSW,9.2,-,N/A,,Clear,250,2013-01-20 18:15:00
1:35 PM,50.0,28.4,43,30.13,10.0,West,8.1,-,N/A,,Clear,280,2013-01-20 18:35:00
1:55 PM,51.8,26.6,38,30.12,10.0,West,11.5,-,N/A,,Clear,280,2013-01-20 18:55:00
2:15 PM,51.8,28.4,41,30.12,10.0,WNW,10.4,-,N/A,,Clear,290,2013-01-20 19:15:00
2:35 PM,51.8,26.6,38,30.12,10.0,West,10.4,-,N/A,,Clear,280,2013-01-20 19:35:00
2:55 PM,50.0,24.8,37,30.12,10.0,West,8.1,16.1,N/A,,Clear,260,2013-01-20 19:55:00
3:15 PM,51.8,26.6,38,30.12,10.0,WNW,4.6,-,N/A,,Clear,300,2013-01-20 20:15:00
3:35 PM,51.8,24.8,35,30.12,10.0,West,8.1,-,N/A,,Clear,280,2013-01-20 20:35:00
3:55 PM,50.0,23.0,35,30.13,10.0,NW,6.9,-,N/A,,Clear,310,2013-01-20 20:55:00
4:15 PM,50.0,21.2,32,30.13,10.0,WNW,6.9,-,N/A,,Clear,300,2013-01-20 21:15:00
4:35 PM,50.0,21.2,32,30.13,10.0,WNW,6.9,-,N/A,,Clear,300,2013-01-20 21:35:00
4:55 PM,50.0,21.2,32,30.13,10.0,West,6.9,-,N/A,,Clear,260,2013-01-20 21:55:00
5:15 PM,48.2,21.2,34,30.14,10.0,West,5.8,-,N/A,,Clear,270,2013-01-20 22:15:00
5:35 PM,46.4,21.2,37,30.14,10.0,West,4.6,-,N/A,,Clear,260,2013-01-20 22:35:00
5:55 PM,44.6,23.0,43,30.15,10.0,West,5.8,-,N/A,,Clear,270,2013-01-20 22:55:00
6:15 PM,42.8,21.2,42,30.14,10.0,WNW,5.8,-,N/A,,Clear,300,2013-01-20 23:15:00
6:35 PM,41.0,19.4,42,30.15,10.0,WNW,5.8,-,N/A,,Clear,300,2013-01-20 23:35:00
6:55 PM,41.0,21.2,45,30.15,10.0,West,3.5,-,N/A,,Clear,280,2013-01-20 23:55:00
7:15 PM,39.2,24.8,56,30.15,10.0,Calm,Calm,-,N/A,,Clear,0,2013-01-21 00:15:00
7:35 PM,35.6,24.8,65,30.15,10.0,Calm,Calm,-,N/A,,Clear,0,2013-01-21 00:35:00
7:55 PM,35.6,24.8,65,30.15,10.0,Calm,Calm,-,N/A,,Unknown,0,2013-01-21 00:55:00
8:15 PM,32.0,24.8,75,30.15,10.0,Calm,Calm,-,N/A,,Unknown,0,2013-01-21 01:15:00
8:35 PM,32.0,24.8,75,30.15,10.0,Calm,Calm,-,N/A,,Clear,0,2013-01-21 01:35:00
8:55 PM,32.0,26.6,80,30.15,10.0,Calm,Calm,-,N/A,,Clear,0,2013-01-21 01:55:00
9:15 PM,28.4,24.8,86,30.15,10.0,Calm,Calm,-,N/A,,Clear,0,2013-01-21 02:15:00
9:35 PM,28.4,26.6,93,30.15,10.0,Calm,Calm,-,N/A,,Clear,0,2013-01-21 02:35:00
9:55 PM,28.4,26.6,93,30.15,10.0,Calm,Calm,-,N/A,,Clear,0,2013-01-21 02:55:00
10:15 PM,28.4,24.8,86,30.15,10.0,Calm,Calm,-,N/A,,Clear,0,2013-01-21 03:15:00
10:35 PM,28.4,24.8,86,30.15,10.0,Calm,Calm,-,N/A,,Clear,0,2013-01-21 03:35:00
10:55 PM,28.4,24.8,86,30.15,10.0,Calm,Calm,-,N/A,,Clear,0,2013-01-21 03:55:00
11:15 PM,26.6,24.8,93,30.14,10.0,Calm,Calm,-,N/A,,Clear,0,2013-01-21 04:15:00
11:35 PM,26.6,24.8,93,30.14,10.0,Calm,Calm,-,N/A,,Clear,0,2013-01-21 04:35:00
11:55 PM,26.6,24.8,93,30.13,10.0,Calm,Calm,-,N/A,,Clear,0,2013-01-21 04:55:00